Home > Weather > Albany > Past weeks

Flag for USA Past Weather in Albany, New York, USA — Yesterday and Last 2 Weeks

Now
78 °F

Partly sunny.


Feels Like: 79 °F
Forecast: 60 / 87 °F
Wind: 3 mph from North

Location: Albany County Airport

Current Time: May 26, 2016 at 12:30:49 PM

Latest Report: May 26, 2016 at 11:51 AM


Visibility: 10 mi

Pressure: 30.09 "Hg

Humidity: 50%

Dew Point: 58 °F

Location of AlbanyLocation

Past Weather in Albany — Graph

°F

Albany Temperature Yesterday

Maximum temperature yesterday: 88 °F (at 1:51 PM)
Minimum temperature yesterday: 52 °F (at 1:51 AM)
Average temperature yesterday: 70 °F

High & Low Weather Summary for the Past Weeks

 TemperatureHumidityPressure
High88 °F (May 25, 1:51 PM)97% (May 23, 5:51 AM)30.27 "Hg (May 23, 5:51 AM)
Low39 °F (May 16, 12:51 AM)19% (May 23, 5:51 PM)29.53 "Hg (May 14, 5:51 PM)
Average60 °F58%29.98 "Hg
* Reported May 11 10:51 AM — May 26 10:51 AM, Albany, Weather by CustomWeather, © 2016

Note: Actual official high and low records may vary slightly from our data, if they occured in-between our weather recording intervals... More about our weather records

Advertising

Albany Weather History for the Previous 24 Hours

Scroll right to see more
 ConditionsComfort  
Time TempWeatherWind HumidityBarometerVisibility
10:51 AM
Thu, May 26
75 °FPartly sunny.No wind54%30.10 "Hg10 mi
9:51 AM71 °FPartly sunny.3 mph61%30.12 "Hg10 mi
8:51 AM69 °FPartly sunny.7 mph63%30.13 "Hg10 mi
7:51 AM65 °FScattered clouds.5 mph73%30.13 "Hg10 mi
6:51 AM62 °FPartly sunny.No wind80%30.12 "Hg10 mi
5:51 AM59 °FPassing clouds.3 mph84%30.10 "Hg10 mi
4:51 AM59 °FPassing clouds.3 mph84%30.08 "Hg10 mi
3:51 AM60 °FPassing clouds.3 mph80%30.06 "Hg10 mi
2:51 AM60 °FPassing clouds.No wind78%30.05 "Hg10 mi
1:51 AM61 °FPassing clouds.No wind75%30.04 "Hg10 mi
12:51 AM63 °FPassing clouds.No wind70%30.04 "Hg10 mi
11:51 PM
Wed, May 25
64 °FPassing clouds.6 mph70%30.03 "Hg10 mi
10:51 PM67 °FClear.6 mph63%30.03 "Hg10 mi
9:51 PM74 °FClear.8 mph48%30.03 "Hg10 mi
8:51 PM77 °FPassing clouds.7 mph42%30.01 "Hg10 mi
7:51 PM79 °FPassing clouds.9 mph39%30.00 "Hg10 mi
6:51 PM82 °FPassing clouds.14 mph34%29.99 "Hg10 mi
5:51 PM84 °FPassing clouds.12 mph33%29.99 "Hg10 mi
4:51 PM81 °FPartly sunny.12 mph38%30.00 "Hg10 mi
3:51 PM83 °FLight rain. Mostly cloudy.22 mph31%29.98 "Hg10 mi
2:51 PM86 °FPartly sunny.8 mph29%29.97 "Hg10 mi
1:51 PM88 °FScattered clouds.10 mph27%29.98 "Hg10 mi
12:51 PM83 °FScattered clouds.9 mph37%29.99 "Hg10 mi
Weather by CustomWeather, © 2016

See weather overviewHow to use our weather pages